User: anonymous   Login
Location: Unspecified
(0.0000°N, 0.0000°E)
Time: 23:21:49
(UTC+00:00)
Language:

UOSAT-12 - Orbit

View from above orbital plane
View from above orbital plane
View from above satellite
View from above satellite

Ground track
Ground track

The orbit data is extracted from the following two-line orbital elements,

1 25693U 99021A   18050.64146857 -.00000061 +00000-0 +11357-4 0  9990
2 25693 064.5553 082.9808 0048603 279.8375 079.7245 14.80784230016493
Epoch (UTC): 19 February 2018 15:23:42
Eccentricity: 0.0048603
inclination: 64.5553°
perigee height: 593 km
apogee height: 661 km
right ascension of ascending node: 82.9808°
argument of perigee: 279.8375°
revolutions per day: 14.80784230
mean anomaly at epoch: 79.7245°
orbit number at epoch: 1649

The dashed part of the orbit path shows where the satellite is in the earth's shadow,  

DLR